Gulkana, AK

8:18 AM AKDT on April 30, 2017 (GMT -0800)
Gulkana

Weather History for PAGK - February, 2013

Change the Weather History Date:

Monday, February 11, 2013

  Actual Average Record
Temperature  
Mean Temperature 24 °F -  
Max Temperature 30 °F 12 °F 42 °F (1980)
Min Temperature 17 °F -6 °F -45 °F (1999)
Degree Days  
Heating Degree Days 42    
Moisture  
Dew Point 20 °F    
Average Humidity 79    
Maximum Humidity 96    
Minimum Humidity 58    
Precipitation  
Precipitation 0.08 in - - ()
Snow  
Snow 0.00 in - - ()
Snow Depth 6.00 in    
Sea Level Pressure  
Sea Level Pressure 29.59 in    
Wind  
Wind Speed 7 mph (SSW)    
Max Wind Speed 16 mph    
Max Gust Speed -    
Visibility 7 miles    
Events Snow    
Averages and records for this station are not official NWS values.
T = Trace of Precipitation, MM = Missing Value Source: NWS Daily Summary

Daily Weather History Graph

Daily Weather History Graph

Search for Another Location

Airport or City:

Trip Planner

Search our weather history database for the weather conditions in past years. The results will help you decide how hot, cold, wet, or windy it might be!

Date:

Astronomy

Feb. 11, 2013 Rise Set
Actual Time 8:38 AM AKST 5:14 PM AKST
Civil Twilight 7:50 AM AKST 6:02 PM AKST
Nautical Twilight 6:57 AM AKST 6:55 PM AKST
Astronomical Twilight 6:06 AM AKST 7:47 PM AKST
Moon 8:21 AM AKST (2/11) 8:18 PM AKST (2/11)
Length of Visible Light 10h 12m
Length of Day
8h 35m
Waxing Crescent, 3% of the Moon is Illuminated
Feb 11
Waxing Crescent
Feb 17
First Quarter
Feb 25
Full
Mar 4
Last Quarter
Mar 11
New

Hourly Weather History & Observations

Time (AKST) Temp. Windchill Dew Point Humidity Pressure Visibility Wind Dir Wind Speed Gust Speed Precip Events Conditions
12:53 AM 30.0 °F 18.7 °F 21.0 °F 69% 29.49 in 10.0 mi SSE 16.1 mph - N/A   Overcast
1:53 AM 30.0 °F 19.5 °F 19.9 °F 66% 29.49 in 10.0 mi South 13.8 mph - N/A   Overcast
3:53 AM 28.9 °F 20.4 °F 19.9 °F 69% 29.49 in 10.0 mi South 9.2 mph - N/A   Overcast
4:53 AM 28.0 °F 22.8 °F 19.9 °F 72% 29.51 in 10.0 mi ENE 4.6 mph - N/A   Overcast
5:53 AM 30.0 °F 24.1 °F 19.9 °F 66% 29.51 in 10.0 mi NNE 5.8 mph - N/A   Overcast
6:53 AM 30.0 °F 24.1 °F 19.0 °F 64% 29.52 in 10.0 mi NNE 5.8 mph - N/A   Overcast
7:53 AM 28.9 °F 21.9 °F 19.9 °F 69% 29.53 in 10.0 mi NNE 6.9 mph - N/A   Overcast
8:53 AM 27.0 °F 23.0 °F 23.0 °F 85% 29.55 in 1.5 mi ENE 3.5 mph - 0.00 in Snow Light Snow
9:33 AM 27.0 °F - 24.1 °F 89% 29.47 in 5.0 mi Calm Calm - 0.00 in Snow Light Snow
9:53 AM 27.0 °F - 25.0 °F 92% 29.56 in 3.0 mi Calm Calm - 0.01 in Snow Light Snow
10:12 AM 27.0 °F - 25.0 °F 92% 29.48 in 3.0 mi Calm Calm - 0.00 in Snow Light Snow
10:34 AM 27.0 °F - 25.0 °F 92% 29.48 in 5.0 mi Calm Calm - 0.00 in Snow Light Snow
10:53 AM 27.0 °F - 25.0 °F 92% 29.57 in 2.0 mi Calm Calm - 0.00 in Snow Light Snow
11:33 AM 26.1 °F 21.9 °F 25.0 °F 96% 29.49 in 0.8 mi SW 3.5 mph - 0.01 in Snow Light Snow
11:53 AM 26.1 °F - 24.1 °F 92% 29.59 in 0.8 mi Calm Calm - 0.02 in Snow Light Snow
12:53 PM 25.0 °F 20.7 °F 23.0 °F 92% 29.59 in 0.8 mi SW 3.5 mph - 0.03 in Snow Light Snow
1:03 PM 25.0 °F 19.3 °F 21.9 °F 88% 29.51 in 2.0 mi WSW 4.6 mph - 0.00 in Snow Light Snow
1:53 PM 25.0 °F 20.7 °F 23.0 °F 92% 29.60 in 1.0 mi South 3.5 mph - 0.01 in Snow Light Snow
2:00 PM 25.0 °F 19.3 °F 21.9 °F 88% 29.51 in 10.0 mi SSW 4.6 mph - 0.00 in   Overcast
2:53 PM 25.0 °F 19.3 °F 21.0 °F 85% 29.62 in 10.0 mi SSW 4.6 mph - 0.00 in   Mostly Cloudy
3:53 PM 26.1 °F 21.9 °F 21.9 °F 84% 29.62 in 10.0 mi SW 3.5 mph - N/A   Mostly Cloudy
4:53 PM 25.0 °F 19.3 °F 21.0 °F 85% 29.65 in 10.0 mi SSW 4.6 mph - N/A   Mostly Cloudy
5:53 PM 25.0 °F 18.1 °F 19.9 °F 81% 29.67 in 10.0 mi SSW 5.8 mph - N/A   Overcast
6:53 PM 24.1 °F 18.2 °F 19.0 °F 81% 29.70 in 10.0 mi SSW 4.6 mph - N/A   Overcast
7:53 PM 24.1 °F 17.0 °F 17.1 °F 75% 29.73 in 10.0 mi SSW 5.8 mph - N/A   Overcast
8:53 PM 23.0 °F 13.9 °F 15.1 °F 72% 29.75 in 10.0 mi SW 8.1 mph - N/A   Overcast
9:28 PM 23.0 °F 15.8 °F 15.1 °F 72% 29.65 in 10.0 mi SW 5.8 mph - N/A   Scattered Clouds
9:53 PM 21.9 °F 14.5 °F 14.0 °F 72% 29.75 in 10.0 mi SSW 5.8 mph - N/A   Clear
10:53 PM 17.1 °F 8.7 °F 12.0 °F 81% 29.76 in 10.0 mi South 5.8 mph - N/A   Partly Cloudy
11:53 PM 19.9 °F 11.1 °F 12.0 °F 71% 29.77 in 10.0 mi South 6.9 mph - N/A   Overcast